Beatrice, NE

9:08 AM CST on December 05, 2016 (GMT -0600)
Beatrice Municipal

Weather History for KBIE - December, 2013

Change the Weather History Date:

Saturday, December 14, 2013

  Actual Average Record
Temperature  
Mean Temperature 18 °F -  
Max Temperature 25 °F 41 °F 62 °F (2006)
Min Temperature 12 °F 20 °F -8 °F (1963)
Degree Days  
Heating Degree Days 46    
Moisture  
Dew Point 14 °F    
Average Humidity 82    
Maximum Humidity 91    
Minimum Humidity 70    
Precipitation  
Precipitation 0.00 in - - ()
Sea Level Pressure  
Sea Level Pressure 30.17 in    
Wind  
Wind Speed 14 mph (NNW)    
Max Wind Speed 23 mph    
Max Gust Speed 26 mph    
Visibility 9 miles    
Events      
Averages and records for this station are not official NWS values.
T = Trace of Precipitation, MM = Missing Value Source: NWS Daily Summary

Daily Weather History Graph

Daily Weather History Graph

Search for Another Location

Airport or City:

Trip Planner

Search our weather history database for the weather conditions in past years. The results will help you decide how hot, cold, wet, or windy it might be!

Date:

Astronomy

Dec. 14, 2013 Rise Set
Actual Time 7:42 AM CST 5:01 PM CST
Civil Twilight 7:11 AM CST 5:32 PM CST
Nautical Twilight 6:37 AM CST 6:06 PM CST
Astronomical Twilight 6:04 AM CST 6:39 PM CST
Moon 3:24 PM CST (12/14) 5:03 AM CST (12/14)
Length of Visible Light 10h 20m
Length of Day
9h 19m
Waxing Gibbous, 94% of the Moon is Illuminated
Dec 14
Waxing Gibbous
Dec 17
Full
Dec 25
Last Quarter
Jan 1
New
Jan 7
First Quarter

Hourly Weather History & Observations

Time (CST) Temp. Windchill Dew Point Humidity Pressure Visibility Wind Dir Wind Speed Gust Speed Precip Events Conditions
12:15 AM 22.8 °F 7.7 °F 19.6 °F 87% 30.04 in 5.0 mi North 20.7 mph - N/A   Overcast
12:35 AM 22.8 °F 8.5 °F 19.9 °F 89% 30.05 in 5.0 mi North 18.4 mph 24.2 mph N/A   Overcast
12:55 AM 22.8 °F 8.1 °F 20.3 °F 90% 30.05 in 5.0 mi North 19.6 mph 24.2 mph N/A   Overcast
1:15 AM 22.6 °F 6.8 °F 20.1 °F 90% 30.06 in 5.0 mi North 23.0 mph - N/A   Overcast
1:35 AM 22.3 °F 7.4 °F 19.8 °F 90% 30.06 in 5.0 mi North 19.6 mph 24.2 mph N/A   Overcast
1:55 AM 21.9 °F 6.5 °F 19.4 °F 90% 30.07 in 5.0 mi North 20.7 mph - N/A   Overcast
2:15 AM 21.7 °F 5.9 °F 19.4 °F 91% 30.08 in 4.0 mi North 21.9 mph 25.3 mph N/A   Overcast
2:35 AM 21.6 °F 7.3 °F 19.2 °F 91% 30.08 in 5.0 mi North 17.3 mph 21.9 mph N/A   Overcast
2:55 AM 21.7 °F 6.7 °F 18.9 °F 89% 30.09 in 5.0 mi North 19.6 mph - N/A   Overcast
3:15 AM 21.2 °F 5.2 °F 18.5 °F 89% 30.10 in 5.0 mi North 21.9 mph - N/A   Overcast
3:35 AM 20.8 °F 5.5 °F 18.0 °F 89% 30.10 in 5.0 mi North 19.6 mph - N/A   Overcast
3:55 AM 20.3 °F 4.0 °F 17.6 °F 89% 30.11 in 5.0 mi North 21.9 mph 26.5 mph N/A   Overcast
4:15 AM 19.9 °F 6.2 °F 16.9 °F 88% 30.12 in 5.0 mi North 15.0 mph 18.4 mph N/A   Overcast
4:35 AM 19.9 °F 4.3 °F 16.5 °F 87% 30.12 in 5.0 mi North 19.6 mph - N/A   Overcast
4:55 AM 19.2 °F 3.0 °F 15.6 °F 86% 30.12 in 7.0 mi North 20.7 mph 25.3 mph N/A   Overcast
5:15 AM 18.9 °F 3.3 °F 14.9 °F 85% 30.13 in 7.0 mi North 18.4 mph 25.3 mph N/A   Overcast
5:35 AM 18.5 °F 3.8 °F 14.5 °F 85% 30.14 in 7.0 mi North 16.1 mph - N/A   Overcast
5:55 AM 18.0 °F 2.2 °F 14.0 °F 84% 30.15 in 10.0 mi North 18.4 mph 24.2 mph N/A   Overcast
6:15 AM 18.0 °F 1.7 °F 14.0 °F 84% 30.16 in 7.0 mi North 19.6 mph - N/A   Overcast
6:35 AM 17.6 °F 2.7 °F 13.6 °F 84% 30.16 in 10.0 mi North 16.1 mph - N/A   Overcast
6:55 AM 17.6 °F 3.2 °F 13.1 °F 83% 30.16 in 10.0 mi North 15.0 mph - N/A   Overcast
7:15 AM 17.2 °F 4.5 °F 12.9 °F 83% 30.17 in 10.0 mi North 11.5 mph - N/A   Mostly Cloudy
7:35 AM 16.3 °F 4.9 °F 12.2 °F 84% 30.18 in 10.0 mi NNW 9.2 mph - N/A   Scattered Clouds
7:55 AM 15.8 °F 3.4 °F 11.8 °F 84% 30.18 in 10.0 mi NNW 10.4 mph - N/A   Clear
8:15 AM 15.3 °F 2.8 °F 11.3 °F 84% 30.19 in 10.0 mi NNW 10.4 mph - N/A   Clear
8:35 AM 15.6 °F 4.9 °F 11.3 °F 83% 30.20 in 10.0 mi NNW 8.1 mph - N/A   Clear
8:55 AM 16.3 °F 3.4 °F 11.5 °F 81% 30.21 in 10.0 mi NNW 11.5 mph - N/A   Clear
9:15 AM 17.2 °F 3.9 °F 11.8 °F 79% 30.22 in 10.0 mi North 12.7 mph - N/A   Clear
9:35 AM 17.6 °F 3.2 °F 11.8 °F 78% 30.23 in 10.0 mi NNW 15.0 mph - N/A   Clear
9:55 AM 18.3 °F 4.6 °F 12.0 °F 76% 30.24 in 10.0 mi NNW 13.8 mph - N/A   Clear
10:15 AM 18.9 °F 4.8 °F 12.4 °F 76% 30.24 in 10.0 mi NNW 15.0 mph - N/A   Scattered Clouds
10:35 AM 19.6 °F 6.8 °F 12.4 °F 74% 30.22 in 10.0 mi NNW 12.7 mph - N/A   Scattered Clouds
10:55 AM 20.1 °F 8.8 °F 12.4 °F 72% 30.22 in 10.0 mi NNW 10.4 mph - N/A   Clear
11:15 AM 21.0 °F 7.6 °F 12.7 °F 70% 30.22 in 10.0 mi NNW 15.0 mph - N/A   Clear
11:35 AM 21.2 °F 8.9 °F 13.3 °F 72% 30.21 in 10.0 mi NW 12.7 mph - N/A   Mostly Cloudy
11:55 AM 21.0 °F 9.3 °F 13.5 °F 73% 30.21 in 10.0 mi NW 11.5 mph - N/A   Overcast
12:15 PM 22.6 °F 11.3 °F 14.7 °F 72% 30.20 in 10.0 mi NW 11.5 mph - N/A   Mostly Cloudy
12:35 PM 22.6 °F 9.6 °F 15.4 °F 74% 30.19 in 10.0 mi NW 15.0 mph - N/A   Overcast
12:55 PM 23.0 °F 11.1 °F 16.2 °F 75% 30.19 in 10.0 mi NW 12.7 mph - N/A   Overcast
1:15 PM 23.5 °F 11.8 °F 16.5 °F 75% 30.19 in 10.0 mi NNW 12.7 mph - N/A   Overcast
1:35 PM 23.5 °F 10.3 °F 16.5 °F 75% 30.18 in 10.0 mi NNW 16.1 mph 19.6 mph N/A   Overcast
1:55 PM 24.1 °F 11.5 °F 16.9 °F 74% 30.18 in 10.0 mi NNW 15.0 mph - N/A   Overcast
2:15 PM 23.7 °F 11.5 °F 16.7 °F 75% 30.18 in 10.0 mi NNW 13.8 mph - N/A   Overcast
2:35 PM 23.7 °F 12.6 °F 16.5 °F 74% 30.18 in 10.0 mi NNW 11.5 mph - N/A   Overcast
2:55 PM 24.1 °F 13.7 °F 16.0 °F 71% 30.18 in 10.0 mi NNW 10.4 mph - N/A   Mostly Cloudy
3:15 PM 24.6 °F 14.4 °F 16.3 °F 71% 30.18 in 10.0 mi NW 10.4 mph 16.1 mph N/A   Scattered Clouds
3:35 PM 25.0 °F 14.2 °F 16.9 °F 71% 30.19 in 10.0 mi NNW 11.5 mph 17.3 mph N/A   Scattered Clouds
3:55 PM 24.3 °F 13.3 °F 16.7 °F 73% 30.20 in 10.0 mi NW 11.5 mph - N/A   Clear
4:15 PM 23.7 °F 13.3 °F 16.7 °F 75% 30.19 in 10.0 mi NNW 10.4 mph - N/A   Clear
4:35 PM 22.8 °F 13.6 °F 16.3 °F 76% 30.20 in 10.0 mi NNW 8.1 mph - N/A   Clear
4:55 PM 21.2 °F 12.6 °F 15.6 °F 79% 30.21 in 10.0 mi NW 6.9 mph - N/A   Clear
5:15 PM 19.2 °F 11.3 °F 14.5 °F 82% 30.20 in 10.0 mi NW 5.8 mph - N/A   Clear
5:35 PM 17.1 °F - 13.1 °F 84% 30.20 in 10.0 mi Calm Calm - N/A   Clear
5:55 PM 16.9 °F - 12.6 °F 83% 30.19 in 10.0 mi Calm Calm - N/A   Clear
6:15 PM 18.0 °F - 12.9 °F 81% 30.18 in 10.0 mi Calm Calm - N/A   Clear
6:35 PM 16.9 °F - 12.7 °F 84% 30.19 in 10.0 mi Calm Calm - N/A   Clear
6:55 PM 14.2 °F - 10.2 °F 84% 30.19 in 10.0 mi Calm Calm - N/A   Clear
7:15 PM 15.6 °F - 10.9 °F 82% 30.18 in 10.0 mi Calm Calm - N/A   Clear
7:35 PM 15.4 °F - 11.7 °F 85% 30.18 in 10.0 mi Calm Calm - N/A   Clear
7:55 PM 15.4 °F - 12.7 °F 89% 30.19 in 10.0 mi Calm Calm - N/A   Clear
8:15 PM 14.9 °F - 11.7 °F 87% 30.19 in 10.0 mi Calm Calm - N/A   Clear
8:35 PM 15.1 °F - 11.8 °F 87% 30.18 in 10.0 mi Calm Calm - N/A   Clear
8:55 PM 14.0 °F - 11.3 °F 89% 30.18 in 10.0 mi Calm Calm - N/A   Clear
9:15 PM 12.6 °F - 8.8 °F 85% 30.18 in 10.0 mi Calm Calm - N/A   Clear
9:35 PM 12.6 °F 4.8 °F 9.0 °F 85% 30.18 in 10.0 mi SSW 4.6 mph - N/A   Clear
9:55 PM 12.6 °F - 9.7 °F 88% 30.18 in 10.0 mi Calm Calm - N/A   Clear
10:15 PM 13.1 °F - 9.7 °F 86% 30.18 in 10.0 mi Calm Calm - N/A   Clear
10:35 PM 14.0 °F - 10.6 °F 86% 30.18 in 10.0 mi Calm Calm - N/A   Clear
10:55 PM 12.2 °F - 8.2 °F 84% 30.18 in 10.0 mi Calm Calm - N/A   Clear
11:15 PM 14.0 °F - 11.5 °F 90% 30.17 in 10.0 mi Calm Calm - N/A   Mostly Cloudy
11:35 PM 14.9 °F 9.2 °F 12.7 °F 91% 30.17 in 10.0 mi SSW 3.5 mph - N/A   Overcast
11:55 PM 15.8 °F 7.2 °F 13.6 °F 91% 30.16 in 7.0 mi SSW 5.8 mph - N/A   Overcast